Location: Knobs
(40.8333°S, 175.2333°E)
Time: 02:18:02
(UTC+00:00)

Cosmos 1943 - Pass Details

Date: 12 June 2024
Orbit: 834 x 847 km, 71.0° (Epoch: 22 July)

Event Time Altitude Azimuth Distance (km) Brightness Sun altitude
Exits shadow 18:18:06 - 300° (WNW) 2,550 5.3 -15.1°
Reaches altitude 10° 18:18:21 10° 299° (WNW) 2,465 5.2 -15.1°
Maximum altitude 18:23:21 31° 237° (WSW) 1,443 3.9 -14.2°
Drops below altitude 10° 18:28:26 10° 174° (S) 2,497 5.5 -13.3°
Sets 18:31:12 0° 164° (SSE) 3,441 6.3 -12.8°
